Meteo Giornale » Osservazioni meteo Italia » Bari-Palese Macchie

ore: 04:20 - Osservazioni Meteo Bari-Palese Macchie
Lat. 41° 8' N Lon. 16° 47' E Alt. 34 metri s.l.m.

sereno Europe/Rome

24 °C

Sereno

Temp. 24 Ore

24 °C

33 °C

Sud-Ovest

9.3 Km/h

Dew point 14 °C

Umidità 53 %

Visibilità  10 Km

Il sole sorge alle ore 05:36

Il sole tramonta alle ore 20:22

Data e Ora Cielo e Fenomeni T °C DP °C Um. % Pres. hPa Vis. km Vento km/h
Oggi h: 04:20 sereno Sereno 24 14 53 1010 10 SO 9.3
Oggi h: 03:50 sereno Sereno 26 14 47 1010 10 O 7.4
Oggi h: 03:20 sereno Sereno 25 15 53 1010 10 SO 7.4
Oggi h: 02:50 sereno Sereno 25 15 53 1010 10 N 5.5
Oggi h: 02:20 sereno Sereno 26 16 54 1010 10 SO 9.3
Oggi h: 01:50 sereno Sereno 26 16 54 1011 10 S/SO 9.3
Oggi h: 01:20 sereno Sereno 27 17 54 1011 10 S/SO 7.4
Oggi h: 00:50 sereno Sereno 27 18 57 1011 10 SO 7.4
Oggi h: 00:20 sereno Sereno 27 18 57 1011 10 O/SO 9.3
Ieri h: 23:50 sereno Sereno 26 18 61 1011 10 N 5.5
Ieri h: 23:20 sereno Sereno 27 19 61 1012 10 O/SO 9.3
Ieri h: 22:50 sereno Sereno 28 19 58 1012 10 O 7.4
Ieri h: 22:20 sereno Sereno 28 20 61 1012 10 O/NO 7.4
Ieri h: 21:50 sereno Sereno 28 20 61 1012 10 N 5.5
Ieri h: 21:20 sereno Sereno 29 20 58 1012 10 N 5.5
Ieri h: 20:50 sereno Sereno 30 20 55 1012 10 N 3.7
Ieri h: 20:20 sereno Sereno 30 21 58 1012 10 N 1.8
Ieri h: 19:50 sereno Sereno 30 21 58 1012 10 N 3.7
Ieri h: 19:20 sereno Sereno 31 21 55 1012 10 N 5.5
Ieri h: 18:50 sereno Sereno 30 23 66 1012 10 N/NE 9.3
Ieri h: 18:20 sereno Sereno 31 24 66 1011 10 N 9.3
Ieri h: 17:50 sereno Sereno 31 23 62 1011 10 N 11.1
Ieri h: 17:20 sereno Sereno 31 24 66 1011 10 N 13
Ieri h: 16:50 sereno Sereno 31 23 62 1012 10 N 13
Ieri h: 16:20 sereno Sereno 31 23 62 1012 10 N/NE 14.8
Ieri h: 15:50 sereno Sereno 31 23 62 1012 10 N/NE 16.7
Ieri h: 15:20 sereno Sereno 32 23 59 1013 10 N 14.8
Ieri h: 14:50 sereno Sereno 32 22 55 1013 10 N 14.8
Ieri h: 14:20 sereno Sereno 32 22 55 1013 10 N 14.8
Ieri h: 13:50 sereno Sereno 32 22 55 1014 10 N 14.8
Ieri h: 13:20 sereno Sereno 32 20 49 1014 10 N 16.7
Ieri h: 12:50 sereno Sereno 33 20 46 1014 10 N 16.7
Ieri h: 12:20 sereno Sereno 33 20 46 1014 10 N/NO 16.7
Ieri h: 11:50 sereno Sereno 33 20 46 1014 10 N/NO 14.8
Ieri h: 11:20 sereno Sereno 32 18 43 1014 10 N/NO 16.7
Ieri h: 10:50 sereno Sereno 33 17 38 1014 10 N 14.8
Ieri h: 10:20 sereno Sereno 33 18 41 1014 10 N/NO 13
Ieri h: 09:50 sereno Sereno 33 17 38 1014 10 NO 14.8
Ieri h: 09:20 sereno Sereno 32 18 43 1014 10 O/NO 9.3
Ieri h: 08:50 sereno Sereno 31 19 48 1015 10 O/NO 11.1
Ieri h: 08:20 sereno Sereno 31 18 45 1015 10 O/NO 13
Ieri h: 07:50 sereno Sereno 30 18 48 1014 10 O 13
Ieri h: 07:20 sereno Sereno 28 18 54 1015 10 N 1.8
Ieri h: 06:50 sereno Sereno 26 18 61 1015 10 N 5.5
Ieri h: 06:20 sereno Sereno 24 18 69 1014 10 N 3.7
Ieri h: 05:50 sereno Sereno 25 18 65 1014 10 O 7.4
Ieri h: 05:20 sereno Sereno 24 17 64 1014 10 N 3.7
Ieri h: 04:50 sereno Sereno 25 18 65 1014 10 N 5.5